Regional Weather Roundup
Issued by NWS

Home | Current Version | Previous Version | Graphics & Text | Print | Product List | Glossary On
Versions: 1 2 3 4 5 6 7 8 9 10 11 12 13 14 15 16 17 18 19 20 21 22 23 24 25 26 27 28 29 30 31 32 33 34 35 36 37 38 39 40 41 42 43 44 45 46 47 48 49 50
000
ASUS45 KCYS 211610
RWRWY

WYOMING REGIONAL WEATHER ROUNDUP
NATIONAL WEATHER SERVICE CHEYENNE WY
1000 AM MDT SAT APR 21 2018

NOTE:  "FAIR" INDICATES FEW OR NO CLOUDS BELOW 12,000 FEET
WITH NO SIGNIFICANT WEATHER AND/OR OBSTRUCTIONS TO VISIBILITY.

WYZ001-211700-
YELLOWSTONE NATIONAL PARK

CITY           SKY/WX    TMP DP  RH WIND       PRES   REMARKS
LK YELLOWSTONE   N/A     33  22  63 CALM      30.24S
W YELLOWSTONE  NOT AVBL

$$
WYZ002>013-054>058-071-098>099-211700-
NORTHERN WYOMING

CITY           SKY/WX    TMP DP  RH WIND       PRES   REMARKS
JACKSON        FAIR      44  26  49 CALM      30.21S
CODY           FAIR      55  30  38 VRB3      30.11F
GREYBULL         N/A    N/A N/A N/A MISG      30.09F
WORLAND        FAIR      52  36  54 SW6       30.09F
SHERIDAN       FAIR      50  37  61 NE3       30.08F
BUFFALO        FAIR      52  37  56 SE6       30.10S
GILLETTE       FAIR      47  36  65 S15       30.12S
HULETT         FAIR      45  34  65 SW16G23   30.16S
NEWCASTLE      CLOUDY    39  34  81 SE9G16    30.20S WCI  33

$$
WYZ014>020-022>026-101>103-211700-
CENTRAL WYOMING

CITY           SKY/WX    TMP DP  RH WIND       PRES   REMARKS
BIG PINEY      FAIR      41  32  70 E7        30.20F
PINEDALE       FAIR      41  32  70 CALM      30.21S
DUBOIS         FAIR      50  19  29 NW14      30.14F
LANDER         FAIR      49  35  58 VRB3      30.12F
RIVERTON       FAIR      48  34  58 VRB5      30.13F
CASPER         FAIR      45  38  76 VRB5      30.14F
DOUGLAS        CLOUDY    39  37  92 SE10      30.17S WCI  32

$$
WYZ021-027>030-104>119-211700-
SOUTHERN WYOMING

CITY           SKY/WX    TMP DP  RH WIND       PRES   REMARKS
EVANSTON       FAIR      47  26  44 W8        30.23S
KEMMERER       FAIR      48  28  46 W7        30.21S
FORT BRIDGER   FAIR      52  30  42 W10       30.24S
ROCK SPRINGS   FAIR      44  31  60 W6        30.19S
DIXON          CLOUDY    40  31  69 SE7       30.20R
RAWLINS          N/A    N/A N/A N/A MISG      30.16R
SARATOGA       CLOUDY    34  34 100 CALM      30.18R
LARAMIE        CLOUDY    29  29 100 SW5       30.16R FOG     WCI  24
CHEYENNE       LGT SNOW  32  31  96 W3        30.17R VSB 1
TORRINGTON     LGT SNOW  33  33 100 SE6       30.21S VSB 1   WCI  28
PINE BLUFFS    CLOUDY    32  32 100 MISG      30.20R

$$



USA.gov is the U.S. government's official web portal to all federal, state and local government web resources and services.